[Date Prev][Date Next][Thread Prev][Thread Next] - [Date Index][Thread Index][Author Index]

2 Line ISS Keps 10-13



ISS
1 25544U 98067A   05285.98878472  .00027961  00000-0  19524-3 0  5381
2 25544 051.6452 017.4334 0001888 071.5959 277.2077 15.74072275394219
----
Via the sarex mailing list at AMSAT.ORG courtesy of AMSAT-NA.
To unsubscribe, send "unsubscribe sarex" to Majordomo@amsat.org



AMSAT Top AMSAT Home